| time (UTC) | temp F | wind direction | speed MPH | gust MPH | rain 1hr in | rain 24hr in | rain mn in | humidity % | barometer mb |
| 20260504042030 | 47 | 254 | 0.0 | 4.0 | 0.00 | 0.00 | 0.00 | 64 | 1008.6 |
| 20260504041612 | 47 | 242 | 1.0 | 3.0 | 0.00 | 0.00 | 0.00 | 64 | 1008.6 |
| 20260504041053 | 47 | 241 | 1.0 | 2.0 | 0.00 | 0.00 | 0.00 | 64 | 1008.7 |
| 20260504040523 | 47 | 241 | 1.0 | 3.0 | 0.00 | 0.00 | 0.00 | 65 | 1008.7 |
| 20260504040002 | 47 | 241 | 0.0 | 1.0 | 0.00 | 0.00 | 0.00 | 64 | 1008.7 |
| 20260504035557 | 47 | 240 | 0.0 | 2.0 | 0.00 | 0.00 | 0.00 | 64 | 1008.6 |
| 20260504035036 | 47 | 240 | 1.0 | 3.0 | 0.00 | 0.00 | 0.00 | 64 | 1008.6 |
| 20260504034506 | 47 | 240 | 1.0 | 3.0 | 0.00 | 0.00 | 0.00 | 64 | 1008.6 |
| 20260504034059 | 48 | 279 | 0.0 | 0.0 | 0.00 | 0.00 | 0.00 | 64 | 1008.6 |
| 20260504033540 | 48 | 279 | 0.0 | 0.0 | 0.00 | 0.00 | 0.00 | 62 | 1008.6 |
| 20260504033013 | 48 | 279 | 0.0 | 0.0 | 0.00 | 0.00 | 0.00 | 62 | 1008.6 |
| 20260504032602 | 49 | 279 | 0.0 | 0.0 | 0.00 | 0.00 | 0.00 | 61 | 1008.6 |
| 20260504032042 | 49 | 279 | 0.0 | 0.0 | 0.00 | 0.00 | 0.00 | 60 | 1008.7 |
| 20260504031523 | 50 | 279 | 0.0 | 1.0 | 0.00 | 0.00 | 0.00 | 58 | 1008.8 |
| 20260504031105 | 50 | 279 | 0.0 | 2.0 | 0.00 | 0.00 | 0.00 | 57 | 1008.8 |
| 20260504030547 | 50 | 279 | 0.0 | 2.0 | 0.00 | 0.00 | 0.00 | 57 | 1008.8 |
| 20260504030017 | 51 | 280 | 0.0 | 0.0 | 0.00 | 0.00 | 0.00 | 56 | 1008.8 |
| 20260504025609 | 51 | 280 | 0.0 | 0.0 | 0.00 | 0.00 | 0.00 | 55 | 1008.7 |
| 20260504025050 | 52 | 280 | 0.0 | 2.0 | 0.00 | 0.00 | 0.00 | 54 | 1008.6 |
| 20260504024532 | 52 | 280 | 0.0 | 6.0 | 0.00 | 0.00 | 0.00 | 53 | 1008.7 |
| 20260504024000 | 53 | 280 | 1.0 | 6.0 | 0.00 | 0.00 | 0.00 | 51 | 1008.7 |
| 20260504023553 | 53 | 255 | 1.0 | 4.0 | 0.00 | 0.00 | 0.00 | 52 | 1008.7 |
| 20260504023034 | 53 | 246 | 1.0 | 7.0 | 0.00 | 0.00 | 0.00 | 51 | 1008.7 |
| 20260504022507 | 53 | 284 | 2.0 | 8.0 | 0.00 | 0.00 | 0.00 | 51 | 1008.7 |
| 20260504022100 | 53 | 226 | 2.0 | 8.0 | 0.00 | 0.00 | 0.00 | 50 | 1008.8 |
| 20260504021539 | 53 | 300 | 2.0 | 7.0 | 0.00 | 0.00 | 0.00 | 50 | 1008.9 |
| 20260504021007 | 53 | 228 | 2.0 | 9.0 | 0.00 | 0.00 | 0.00 | 50 | 1008.9 |
| 20260504020558 | 53 | 238 | 3.0 | 10.0 | 0.00 | 0.00 | 0.00 | 51 | 1008.9 |
| 20260504020038 | 53 | 360 | 2.0 | 10.0 | 0.00 | 0.00 | 0.00 | 51 | 1009.0 |
| 20260504015510 | 53 | 360 | 2.0 | 9.0 | 0.00 | 0.00 | 0.00 | 51 | 1009.0 |
| 20260504015102 | 53 | 360 | 3.0 | 6.0 | 0.00 | 0.00 | 0.00 | 51 | 1009.0 |
| 20260504014545 | 54 | 360 | 2.0 | 6.0 | 0.00 | 0.00 | 0.00 | 51 | 1009.0 |
| 20260504014014 | 54 | 360 | 2.0 | 9.0 | 0.00 | 0.00 | 0.00 | 50 | 1009.1 |
| 20260504013608 | 54 | 360 | 2.0 | 9.0 | 0.00 | 0.00 | 0.00 | 49 | 1009.2 |
| 20260504013053 | 54 | 360 | 2.0 | 5.0 | 0.00 | 0.00 | 0.00 | 48 | 1009.1 |
| 20260504012529 | 54 | 360 | 2.0 | 5.0 | 0.00 | 0.00 | 0.00 | 48 | 1009.2 |
| 20260504012109 | 54 | 360 | 2.0 | 10.0 | 0.00 | 0.00 | 0.00 | 47 | 1009.1 |
| 20260504011549 | 54 | 360 | 1.0 | 13.0 | 0.00 | 0.00 | 0.00 | 47 | 1009.0 |
| 20260504011019 | 54 | 360 | 5.0 | 12.0 | 0.00 | 0.00 | 0.00 | 47 | 1008.9 |
| 20260504010612 | 54 | 360 | 3.0 | 15.0 | 0.00 | 0.00 | 0.00 | 47 | 1008.9 |
| 20260504010101 | 54 | 34 | 4.0 | 15.0 | 0.00 | 0.00 | 0.00 | 48 | 1008.8 |
| 20260504005533 | 54 | 360 | 2.0 | 13.0 | 0.00 | 0.00 | 0.00 | 49 | 1008.9 |
| 20260504005006 | 54 | 360 | 5.0 | 13.0 | 0.00 | 0.00 | 0.00 | 49 | 1009.1 |
| 20260504004608 | 54 | 41 | 4.0 | 12.0 | 0.00 | 0.00 | 0.00 | 49 | 1009.0 |
| 20260504004037 | 54 | 360 | 2.0 | 12.0 | 0.00 | 0.00 | 0.00 | 50 | 1009.2 |
| 20260504003508 | 54 | 360 | 3.0 | 15.0 | 0.00 | 0.00 | 0.00 | 49 | 1009.3 |
| 20260504003100 | 54 | 360 | 4.0 | 18.0 | 0.00 | 0.00 | 0.00 | 48 | 1009.3 |
| 20260504002539 | 54 | 360 | 5.0 | 18.0 | 0.00 | 0.00 | 0.00 | 48 | 1009.4 |
| 20260504002014 | 54 | 45 | 2.0 | 16.0 | 0.00 | 0.00 | 0.00 | 48 | 1009.4 |
| 20260504001609 | 54 | 360 | 5.0 | 16.0 | 0.00 | 0.00 | 0.00 | 46 | 1009.3 |
| 20260504001042 | 54 | 360 | 4.0 | 23.0 | 0.00 | 0.00 | 0.00 | 47 | 1009.2 |
| 20260504000511 | 54 | 42 | 3.0 | 16.0 | 0.00 | 0.00 | 0.00 | 47 | 1009.2 |
| 20260504000134 | 54 | 360 | 7.0 | 16.0 | 0.00 | 0.00 | 0.00 | 46 | 1009.5 |
| 20260503235543 | 54 | 360 | 3.0 | 13.0 | 0.00 | 0.00 | 0.00 | 46 | 1009.3 |
| 20260503235014 | 54 | 360 | 1.0 | 9.0 | 0.00 | 0.00 | 0.00 | 47 | 1009.4 |
| 20260503234607 | 54 | 360 | 2.0 | 8.0 | 0.00 | 0.00 | 0.00 | 46 | 1009.1 |
| 20260503234048 | 54 | 22 | 2.0 | 11.0 | 0.00 | 0.00 | 0.00 | 45 | 1009.1 |
| 20260503233527 | 53 | 360 | 2.0 | 11.0 | 0.00 | 0.00 | 0.00 | 46 | 1009.1 |
| 20260503233111 | 53 | 213 | 2.0 | 6.0 | 0.00 | 0.00 | 0.00 | 47 | 1009.2 |
| 20260503232550 | 53 | 360 | 3.0 | 13.0 | 0.00 | 0.00 | 0.00 | 47 | 1009.2 |
| 20260503232019 | 54 | 360 | 2.0 | 13.0 | 0.00 | 0.00 | 0.00 | 47 | 1009.2 |
| 20260503231612 | 54 | 360 | 3.0 | 18.0 | 0.00 | 0.00 | 0.00 | 47 | 1009.2 |
| 20260503231053 | 54 | 360 | 5.0 | 18.0 | 0.00 | 0.00 | 0.00 | 46 | 1009.5 |
| 20260503230526 | 54 | 360 | 4.0 | 13.0 | 0.00 | 0.00 | 0.00 | 45 | 1009.4 |
| 20260503230113 | 54 | 360 | 4.0 | 22.0 | 0.00 | 0.00 | 0.00 | 45 | 1009.3 |
| 20260503225550 | 55 | 29 | 5.0 | 22.0 | 0.00 | 0.00 | 0.00 | 46 | 1009.3 |
| 20260503225033 | 55 | 360 | 4.0 | 11.0 | 0.00 | 0.00 | 0.00 | 45 | 1009.2 |
| 20260503224612 | 55 | 360 | 3.0 | 13.0 | 0.00 | 0.00 | 0.00 | 47 | 1009.3 |
| 20260503224054 | 55 | 360 | 3.0 | 17.0 | 0.00 | 0.00 | 0.00 | 46 | 1009.3 |
| 20260503223524 | 55 | 360 | 4.0 | 17.0 | 0.00 | 0.00 | 0.00 | 45 | 1009.0 |
| 20260503223004 | 56 | 355 | 5.0 | 12.0 | 0.00 | 0.00 | 0.00 | 43 | 1009.1 |
| 20260503222556 | 56 | 235 | 3.0 | 14.0 | 0.00 | 0.00 | 0.00 | 44 | 1008.9 |
| 20260503222035 | 57 | 34 | 4.0 | 14.0 | 0.00 | 0.00 | 0.00 | 41 | 1009.0 |
| 20260503221505 | 57 | 96 | 4.0 | 11.0 | 0.00 | 0.00 | 0.00 | 42 | 1009.0 |
| 20260503221056 | 57 | 78 | 3.0 | 11.0 | 0.00 | 0.00 | 0.00 | 40 | 1008.9 |
| 20260503220536 | 57 | 351 | 4.0 | 12.0 | 0.00 | 0.00 | 0.00 | 41 | 1008.7 |
| 20260503220005 | 57 | 342 | 4.0 | 12.0 | 0.00 | 0.00 | 0.00 | 39 | 1008.8 |
| 20260503215557 | 57 | 32 | 3.0 | 13.0 | 0.00 | 0.00 | 0.00 | 40 | 1008.8 |
| 20260503215040 | 57 | 56 | 6.0 | 15.0 | 0.00 | 0.00 | 0.00 | 39 | 1008.8 |
| 20260503214515 | 57 | 18 | 6.0 | 15.0 | 0.00 | 0.00 | 0.00 | 39 | 1008.7 |
| 20260503214103 | 58 | 247 | 2.0 | 12.0 | 0.00 | 0.00 | 0.00 | 41 | 1008.9 |
| 20260503213542 | 58 | 49 | 3.0 | 15.0 | 0.00 | 0.00 | 0.00 | 39 | 1008.7 |
| 20260503213013 | 58 | 39 | 4.0 | 15.0 | 0.00 | 0.00 | 0.00 | 39 | 1008.8 |
| 20260503212605 | 58 | 297 | 3.0 | 9.0 | 0.00 | 0.00 | 0.00 | 40 | 1008.7 |
| 20260503212045 | 58 | 355 | 5.0 | 16.0 | 0.00 | 0.00 | 0.00 | 39 | 1008.5 |
| 20260503211526 | 59 | 14 | 6.0 | 16.0 | 0.00 | 0.00 | 0.00 | 38 | 1008.6 |
| 20260503211112 | 59 | 293 | 4.0 | 14.0 | 0.00 | 0.00 | 0.00 | 39 | 1008.5 |
| 20260503210549 | 59 | 36 | 2.0 | 14.0 | 0.00 | 0.00 | 0.00 | 39 | 1008.6 |
| 20260503210020 | 59 | 329 | 3.0 | 14.0 | 0.00 | 0.00 | 0.00 | 40 | 1008.6 |
| 20260503205614 | 59 | 27 | 3.0 | 18.0 | 0.00 | 0.00 | 0.00 | 40 | 1008.6 |
| 20260503205053 | 59 | 147 | 3.0 | 18.0 | 0.00 | 0.00 | 0.00 | 40 | 1008.6 |
| 20260503204534 | 59 | 317 | 3.0 | 9.0 | 0.00 | 0.00 | 0.00 | 38 | 1008.7 |
| 20260503204002 | 59 | 340 | 2.0 | 13.0 | 0.00 | 0.00 | 0.00 | 41 | 1008.8 |
| 20260503203554 | 59 | 355 | 4.0 | 13.0 | 0.00 | 0.00 | 0.00 | 38 | 1008.9 |
| 20260503203040 | 59 | 63 | 3.0 | 11.0 | 0.00 | 0.00 | 0.00 | 41 | 1009.0 |
| 20260503202506 | 59 | 123 | 3.0 | 10.0 | 0.00 | 0.00 | 0.00 | 41 | 1009.0 |
| 20260503202059 | 58 | 325 | 2.0 | 14.0 | 0.00 | 0.00 | 0.00 | 39 | 1009.0 |
| 20260503201543 | 58 | 38 | 4.0 | 14.0 | 0.00 | 0.00 | 0.00 | 39 | 1009.1 |
| 20260503201009 | 58 | 306 | 4.0 | 14.0 | 0.00 | 0.00 | 0.00 | 37 | 1009.1 |
| 20260503200600 | 58 | 49 | 5.0 | 11.0 | 0.00 | 0.00 | 0.00 | 39 | 1009.1 |
| 20260503200041 | 58 | 13 | 3.0 | 11.0 | 0.00 | 0.00 | 0.00 | 39 | 1009.2 |
| 20260503195509 | 57 | 321 | 3.0 | 11.0 | 0.00 | 0.00 | 0.00 | 41 | 1009.1 |
| 20260503195100 | 57 | 101 | 2.0 | 9.0 | 0.00 | 0.00 | 0.00 | 40 | 1009.3 |
| 20260503194540 | 57 | 310 | 3.0 | 12.0 | 0.00 | 0.00 | 0.00 | 41 | 1009.4 |
| 20260503194007 | 56 | 333 | 5.0 | 12.0 | 0.00 | 0.00 | 0.00 | 40 | 1009.4 |
| 20260503193558 | 56 | 327 | 2.0 | 8.0 | 0.00 | 0.00 | 0.00 | 43 | 1009.7 |
| 20260503193043 | 55 | 60 | 1.0 | 12.0 | 0.00 | 0.00 | 0.00 | 43 | 1009.7 |
| 20260503192508 | 55 | 30 | 5.0 | 12.0 | 0.00 | 0.00 | 0.00 | 40 | 1009.9 |
| 20260503192100 | 55 | 184 | 1.0 | 8.0 | 0.00 | 0.00 | 0.00 | 39 | 1009.8 |
| 20260503191541 | 55 | 117 | 1.0 | 12.0 | 0.00 | 0.00 | 0.00 | 41 | 1009.9 |
| 20260503191012 | 55 | 28 | 3.0 | 12.0 | 0.00 | 0.00 | 0.00 | 42 | 1010.1 |
| 20260503190605 | 55 | 45 | 3.0 | 8.0 | 0.00 | 0.00 | 0.00 | 40 | 1010.1 |
| 20260503190046 | 55 | 62 | 3.0 | 9.0 | 0.00 | 0.00 | 0.00 | 40 | 1010.2 |
| 20260503185512 | 55 | 63 | 3.0 | 10.0 | 0.00 | 0.00 | 0.00 | 42 | 1010.3 |
| 20260503185105 | 55 | 67 | 2.0 | 7.0 | 0.00 | 0.00 | 0.00 | 39 | 1010.4 |
| 20260503184553 | 56 | 319 | 2.0 | 9.0 | 0.00 | 0.00 | 0.00 | 41 | 1010.5 |
| 20260503184026 | 56 | 351 | 3.0 | 9.0 | 0.00 | 0.00 | 0.00 | 41 | 1010.6 |
| 20260503183609 | 56 | 19 | 2.0 | 8.0 | 0.00 | 0.00 | 0.00 | 45 | 1010.6 |
| 20260503183049 | 55 | 69 | 2.0 | 9.0 | 0.00 | 0.00 | 0.00 | 43 | 1010.7 |
| 20260503182517 | 54 | 78 | 3.0 | 9.0 | 0.00 | 0.00 | 0.00 | 41 | 1010.7 |
| 20260503182107 | 53 | 277 | 3.0 | 8.0 | 0.00 | 0.00 | 0.00 | 45 | 1010.8 |
| 20260503181549 | 53 | 52 | 3.0 | 9.0 | 0.00 | 0.00 | 0.00 | 42 | 1011.0 |
| 20260503181031 | 53 | 168 | 3.0 | 11.0 | 0.00 | 0.00 | 0.00 | 44 | 1011.0 |
| 20260503180503 | 52 | 180 | 2.0 | 11.0 | 0.00 | 0.00 | 0.00 | 42 | 1011.2 |
| 20260503180105 | 52 | 5 | 3.0 | 8.0 | 0.00 | 0.00 | 0.00 | 43 | 1011.2 |
| 20260503175523 | 52 | 211 | 3.0 | 12.0 | 0.00 | 0.00 | 0.00 | 44 | 1011.5 |
| 20260503175003 | 53 | 30 | 4.0 | 12.0 | 0.00 | 0.00 | 0.00 | 41 | 1011.5 |
| 20260503174556 | 53 | 12 | 2.0 | 12.0 | 0.00 | 0.00 | 0.00 | 44 | 1011.4 |
| 20260503174038 | 53 | 50 | 4.0 | 12.0 | 0.00 | 0.00 | 0.00 | 43 | 1011.5 |
| 20260503173507 | 53 | 35 | 4.0 | 15.0 | 0.00 | 0.00 | 0.00 | 45 | 1011.7 |
| 20260503173111 | 53 | 315 | 3.0 | 15.0 | 0.00 | 0.00 | 0.00 | 43 | 1011.7 |
| 20260503172537 | 52 | 67 | 3.0 | 11.0 | 0.00 | 0.00 | 0.00 | 46 | 1011.8 |
| 20260503172006 | 53 | 70 | 3.0 | 12.0 | 0.00 | 0.00 | 0.00 | 40 | 1011.7 |
| 20260503171559 | 53 | 56 | 4.0 | 13.0 | 0.00 | 0.00 | 0.00 | 39 | 1011.8 |
| 20260503171040 | 53 | 43 | 4.0 | 13.0 | 0.00 | 0.00 | 0.00 | 39 | 1011.7 |
| 20260503170508 | 53 | 34 | 4.0 | 10.0 | 0.00 | 0.00 | 0.00 | 39 | 1011.7 |
| 20260503170112 | 53 | 49 | 5.0 | 11.0 | 0.00 | 0.00 | 0.00 | 38 | 1011.8 |
| 20260503160117 | 51 | 91 | 3.0 | 12.0 | 0.00 | 0.00 | 0.00 | 47 | 1012.4 |
| 20260503150516 | 49 | 309 | 2.0 | 9.0 | 0.00 | 0.00 | 0.00 | 56 | 1012.6 |
| 20260503150109 | 48 | 23 | 2.0 | 9.0 | 0.00 | 0.00 | 0.00 | 55 | 1012.6 |
| 20260503131104 | 44 | 288 | 1.0 | 5.0 | 0.00 | 0.00 | 0.00 | 63 | 1013.6 |
| 20260503130544 | 44 | 277 | 1.0 | 9.0 | 0.00 | 0.00 | 0.00 | 64 | 1013.6 |
| 20260503110608 | 34 | 311 | 0.0 | 3.0 | 0.00 | 0.00 | 0.00 | 81 | 1013.7 |
| 20260503090504 | 32 | 338 | 0.0 | 2.0 | 0.00 | 0.00 | 0.00 | 89 | 1013.2 |
| 20260503081601 | 34 | 336 | 0.0 | 1.0 | 0.00 | 0.00 | 0.00 | 86 | 1013.3 |
| 20260503081043 | 34 | 338 | 0.0 | 2.0 | 0.00 | 0.00 | 0.00 | 86 | 1013.3 |
| 20260503080512 | 34 | 338 | 0.0 | 2.0 | 0.00 | 0.00 | 0.00 | 86 | 1013.3 |
| 20260503080106 | 34 | 338 | 0.0 | 3.0 | 0.00 | 0.00 | 0.00 | 86 | 1013.4 |
| 20260503072550 | 35 | 305 | 1.0 | 5.0 | 0.00 | 0.00 | 0.00 | 85 | 1013.3 |
| 20260503072032 | 35 | 46 | 0.0 | 4.0 | 0.00 | 0.00 | 0.00 | 85 | 1013.3 |
| 20260503071509 | 35 | 46 | 1.0 | 4.0 | 0.00 | 0.00 | 0.00 | 85 | 1013.3 |
| 20260503071055 | 35 | 174 | 0.0 | 3.0 | 0.00 | 0.00 | 0.00 | 85 | 1013.3 |
| 20260503070538 | 35 | 171 | 0.0 | 2.0 | 0.00 | 0.00 | 0.00 | 84 | 1013.4 |
| 20260503055049 | 37 | 266 | 0.0 | 2.0 | 0.00 | 0.00 | 0.00 | 81 | 1013.6 |
| 20260503054520 | 37 | 267 | 0.0 | 2.0 | 0.00 | 0.00 | 0.00 | 81 | 1013.5 |
| 20260503054003 | 37 | 267 | 0.0 | 3.0 | 0.00 | 0.00 | 0.00 | 81 | 1013.6 |
| 20260503053553 | 37 | 267 | 0.0 | 3.0 | 0.00 | 0.00 | 0.00 | 80 | 1013.7 |
| 20260503053035 | 37 | 248 | 0.0 | 0.0 | 0.00 | 0.00 | 0.00 | 80 | 1013.7 |
| 20260503052509 | 38 | 248 | 0.0 | 1.0 | 0.00 | 0.00 | 0.00 | 80 | 1013.9 |
| 20260503052058 | 38 | 248 | 0.0 | 1.0 | 0.00 | 0.00 | 0.00 | 80 | 1013.9 |
| 20260503051539 | 38 | 248 | 0.0 | 0.0 | 0.00 | 0.00 | 0.00 | 80 | 1014.0 |
| 20260503051009 | 38 | 248 | 0.0 | 1.0 | 0.00 | 0.00 | 0.00 | 79 | 1014.0 |
| 20260503050605 | 38 | 248 | 0.0 | 2.0 | 0.00 | 0.00 | 0.00 | 79 | 1014.0 |
| 20260503050038 | 38 | 248 | 0.0 | 2.0 | 0.00 | 0.00 | 0.00 | 78 | 1014.0 |
| 20260503045606 | 38 | 248 | 0.0 | 1.0 | 0.00 | 0.00 | 0.00 | 78 | 1014.1 |
| 20260503045046 | 38 | 248 | 0.0 | 1.0 | 0.00 | 0.00 | 0.00 | 78 | 1014.0 |
| 20260503044525 | 38 | 248 | 0.0 | 2.0 | 0.00 | 0.00 | 0.00 | 77 | 1014.1 |
| 20260503044108 | 38 | 248 | 0.0 | 2.0 | 0.00 | 0.00 | 0.00 | 77 | 1014.0 |
| 20260503043548 | 38 | 248 | 0.0 | 2.0 | 0.00 | 0.00 | 0.00 | 77 | 1014.1 |
| 20260503043040 | 38 | 248 | 0.0 | 2.0 | 0.00 | 0.00 | 0.00 | 76 | 1014.1 |
| 20260503042519 | 38 | 248 | 0.0 | 3.0 | 0.00 | 0.00 | 0.00 | 76 | 1014.1 |